Regional Weather Roundup
Issued by NWS

Home | Current Version | Previous Version | Graphics & Text | Print | Product List | Glossary On
Versions: 1 2 3 4 5 6 7 8 9 10 11 12 13 14 15 16 17 18 19 20 21 22 23 24 25 26 27 28 29 30 31 32 33 34 35 36 37 38 39 40 41 42 43 44 45 46 47 48 49 50
000
ASUS43 KMPX 032001
RWRMN
WEATHER ROUNDUP FOR MINNESOTA
NATIONAL WEATHER SERVICE TWIN CITIES/CHANHASSEN MN
300 PM CDT SUN MAY 03 2015


NOTE: "FAIR" INDICATES FEW OR NO CLOUDS BELOW 12,000 FEET WITH NO
SIGNIFICANT WEATHER AND/OR OBSTRUCTIONS TO VISIBILITY. N/A MEANS
CURRENT SKY AND/OR WEATHER CONDITIONS ARE NOT AVAILABLE.

MNZ060>063-068>070-032100-
   Twin Cities Metro

CITY           SKY/WX    TMP DP  RH WIND       PRES   REMARKS
TWIN CITIES    MOSUNNY   81  54  39 VRB3      29.75F
ST PAUL        SUNNY     81  52  36 CALM      29.76F
CRYSTAL        SUNNY     81  55  40 N12       29.76F
LAKEVILLE      SUNNY     81  54  39 CALM      29.76S
EDEN PRAIRIE   SUNNY     80  54  40 CALM      29.75F
SOUTH ST PAUL  SUNNY     81  52  36 CALM      29.75S
LAKE ELMO      FAIR      79  55  44 CALM      29.78S
$$
MNZ001>005-007-008-013>017-022>024-027-028-032100-
   Northwest Minnesota

CITY           SKY/WX    TMP DP  RH WIND       PRES   REMARKS
BEMIDJI        CLOUDY    61  28  29 NW10      29.89S
HALLOCK        SUNNY     66  21  18 NW25      29.87S
ROSEAU         MOSUNNY   66  28  24 W16G26    29.85R
WARROAD        MOSUNNY   64  34  32 W12G30    29.84R
THIEF RVR FALL MOSUNNY   64  27  24 NW17G23   29.89S
CROOKSTON      MOSUNNY   66  27  22 N22G30    29.89S
MOORHEAD       CLOUDY    64  27  24 N15G21    29.94R
PARK RAPIDS    CLOUDY    65  33  30 NW10      29.90R
MAHNOMEN       MOCLDY    60  26  27 N14       29.90S
$$
MNZ006-009>011-018-025>026-032100-
   North Central Minnesota

CITY           SKY/WX    TMP DP  RH WIND       PRES   REMARKS
BAUDETTE       CLOUDY    65  29  25 W21       29.84S
FLAG ISLAND    MOSUNNY   61  30  31 W22G33    29.81S
INTL FALLS     CLOUDY    64  31  28 NW10G24   29.84R
WASKISH        CLOUDY    61  43  51 CALM      29.88R
BIG FORK       CLOUDY    63  32  31 W7        29.87R
LONGVILLE      CLOUDY    64  32  29 W12G20    29.89R
GRAND RAPIDS   CLOUDY    66  36  32 NW14      29.86S
CRANE LAKE     CLOUDY    64  27  24 NW9G17    29.84S
ORR            CLOUDY    64  34  32 NW8G17    29.82R
COOK           CLOUDY    66  37  34 W13G18    29.84S
WALKER         MOCLDY    62  32  32 NW9       29.88S
$$
MNZ012-019>021-037-032100-
   Northeast Minnesota

CITY           SKY/WX    TMP DP  RH WIND       PRES   REMARKS
DULUTH         CLOUDY    73  34  23 NW22G31   29.80R
ELY            PTSUNNY   70  34  26 NW12G26   29.82R
HIBBING        PTSUNNY   71  30  21 NW18G26   29.83R
EVELETH        PTSUNNY   70  32  24 W12G28    29.85R
DULUTH HARBOR  CLOUDY    73  45  35 W13       29.76F
TWO HARBORS    PTSUNNY   79  43  27 NW8G17    29.75R
SILVER BAY     PTSUNNY   79  30  17 W7G17     29.74R
GRAND MARAIS     N/A     49  42  77 SW7       29.74S
G MARAIS ARPRT PTSUNNY   73  27  17 W14G23    29.79R
$$
MNZ029>031-032-039>041-046>048-054>057-064-032100-
   West Central Minnesota

CITY           SKY/WX    TMP DP  RH WIND       PRES   REMARKS
FERGUS FALLS   CLOUDY    66  36  32 N15       29.91S
WHEATON        CLOUDY    66  36  32 N15G21    29.92F
MORRIS         PTSUNNY   66  37  34 N24       29.87F
ALEXANDRIA     CLOUDY    64  38  38 N12       29.91R
ELBOW LAKE     FAIR      67  38  34 N17G24    29.89S
WADENA         CLOUDY    64  37  36 NW15G22   29.90R
GLENWOOD       CLOUDY    66  36  32 N22G28    29.90R
APPLETON       PTSUNNY   70  34  26 N23G29    29.88R
BENSON         CLOUDY    70  30  23 NE18G30   29.88R
ORTONVILLE     PTSUNNY   72  36  26 N24       29.89S
MADISON        PTSUNNY   72  36  26 N30       29.88R
WILLMAR        FAIR      73  43  33 N24G31    29.86R
$$
MNZ033>034-036-042>043-049>051-058-059-032100-
   Central Minnesota

CITY           SKY/WX    TMP DP  RH WIND       PRES   REMARKS
ST CLOUD       MOSUNNY   77  55  46 N9        29.79F
SAUK CENTRE    MOCLDY    69  37  30 N17       29.86R
PAYNESVILLE    CLOUDY    69  41  35 NW12G17   29.84R
AITKIN         CLOUDY    70  23  17 NW10G20   29.83R
PINE RIVER     CLOUDY    66  39  37 NW10      29.91R
BRAINERD       CLOUDY    69  37  30 N18G26    29.86R
STAPLES        CLOUDY    64  36  34 N12       29.89R
LONG PRAIRIE   PTSUNNY   70  37  30 NW14G22   29.88R
LITTLE FALLS   PTSUNNY   73  34  23 N10G17    29.84R
LITCHFIELD     MOSUNNY   75  55  50 N14       29.81R
BUFFALO        MOSUNNY   76  53  44 NW9       29.80S
MAPLE LAKE     MOSUNNY   77  54  44 N7        29.80F
$$
MNZ037-044-045-052-053-032100-
   East Central Minnesota

CITY           SKY/WX    TMP DP  RH WIND       PRES   REMARKS
PRINCETON      MOSUNNY   77  55  47 N10       29.79F
MORA           MOSUNNY   73  45  35 NW12G20   29.82R
CAMBRIDGE      SUNNY     79  57  47 CALM      29.77F
RUSH CITY      MOSUNNY   74  53  47 CALM      29.80F
MOOSE LAKE     CLOUDY    77  41  27 NW16      29.79S
HINCKLEY       FAIR      77  48  36 NW13G18   29.79S
CLOQUET        CLOUDY    72  30  21 NW18G24   29.81R
MCGREGOR       CLOUDY    70  36  28 NW10      29.83R
$$
MNZ071>073-080-081-089-090-097-098-032100-
   Southwest Minnesota

CITY           SKY/WX    TMP DP  RH WIND       PRES   REMARKS
MONTEVIDEO     CLOUDY    73  37  27 NE28G33   29.86R
GRANITE FALLS  MOSUNNY   76  39  27 NW23G35   29.85R
CANBY          PTSUNNY   72  38  28 N21G29    29.88S
MARSHALL       PTSUNNY   75  45  33 N29G35    29.82S
REDWOOD FALLS  MOSUNNY   81  54  39 N16       29.78R
OLIVIA         MOSUNNY   75  52  43 N15       29.80R
PIPESTONE      SUNNY     73  52  46 N20G31    29.84R
WINDOM         MOSUNNY   84  48  28 W7        29.77S
WORTHINGTON    SUNNY     82  50  32 E3        29.77S
JACKSON        MOSUNNY   84  41  21 SW10      29.77F
TRACY          MOSUNNY   79  55  43 N20G32    29.82R
SLAYTON        MOSUNNY   76  53  43 N22       29.82R
$$
MNZ065>067-074>077-082>085-091>093-032100-
   South Central Minnesota

CITY           SKY/WX    TMP DP  RH WIND       PRES   REMARKS
MANKATO        SUNNY     82  52  34 S8        29.75F
NEW ULM        MOSUNNY   84  52  32 N3G16     29.74S
ST JAMES       MOSUNNY   84  46  26 SE3       29.75F
FAIRMONT       MOSUNNY   84  46  26 SW7       29.76S
GLENCOE        PTSUNNY   82  56  41 CALM      29.75S
FARIBAULT      SUNNY     84  52  32 W7        29.77F
OWATONNA       SUNNY     82  46  28 SW8       29.77F
WASECA         SUNNY     81  48  32 SW9       29.78F
ALBERT LEA     MOSUNNY   82  48  30 SW5       29.77F
$$
MNZ078>079-086>088-094>096-032100-
   Southeast Minnesota

CITY           SKY/WX    TMP DP  RH WIND       PRES   REMARKS
ROCHESTER      SUNNY     81  51  35 SW7       29.80F
RED WING       SUNNY     82  52  34 SE8       29.75F
STANTON        SUNNY     82  51  33 W3        29.75S
DODGE CENTER   SUNNY     81  50  34 W5        29.79S
WINONA         SUNNY     81  50  34 SW5       29.77F
AUSTIN         MOSUNNY   81  52  36 S5        29.78F
PRESTON        SUNNY     81  49  33 S7        29.81S
$$
ABBREVIATIONS USED IN REMARKS
   TC - TEMPERATURES IN CELSIUS
  WCI - WIND CHILL INDEX
   HX - HEAT INDEX
  VSB - VISIBILITY
$$



USA.gov is the U.S. government's official web portal to all federal, state and local government web resources and services.